Home   Weather   Ulhasnagar   Past weeks
Flag for India

Past Weather in Ulhasnagar, Maharashtra, India — Yesterday and Last 2 Weeks

Now
82 °F

Scattered showers. Broken clouds.


Feels Like: 91 °F
Forecast: 85 / 77 °F
Wind: No wind

Location: Mumbai / Santacruz

Current Time: Aug 25, 2019 at 10:21:53 am

Latest Report: Aug 25, 2019 at 9:30 am


Visibility: 2 mi

Pressure: 29.74 "Hg

Humidity: 84%

Dew Point: 77 °F

Location of UlhasnagarLocation

Past Weather in Ulhasnagar — Graph

°F

Ulhasnagar Temperature Yesterday

Maximum temperature yesterday: 88 °F (at 2:30 pm)
Minimum temperature yesterday: 81 °F (at 4:30 am)
Average temperature yesterday: 84 °F

High & Low Weather Summary for the Past Weeks

 TemperatureHumidityPressure
High88 °F (Aug 19, 1:00 pm)94% (Aug 15, 1:00 am)29.86 "Hg (Aug 15, 1:00 am)
Low79 °F (Aug 15, 1:00 am)62% (Aug 20, 3:00 pm)29.53 "Hg (Aug 10, 4:00 pm)
Average83 °F81%29.72 "Hg
* Reported Aug 10 8:30 am — Aug 25 9:00 am, Ulhasnagar. Weather by CustomWeather, © 2019

Note: Actual official high and low records may vary slightly from our data, if they occured in-between our weather recording intervals... More about our weather records

Advertising

Ulhasnagar Weather History for the Previous 24 Hours

Scroll right to see more
 ConditionsComfort  
Time TempWeatherWind HumidityBarometerVisibility
9:00 am
Sun, Aug 25
81 °FBroken clouds.5 mph84%29.74 "Hg1 mi
8:30 am79 °FBroken clouds.No wind89%29.74 "Hg1 mi
8:00 am79 °FLight rain. Broken clouds.3 mph89%29.74 "Hg1 mi
7:30 am81 °FRain. Broken clouds.9 mph89%29.71 "Hg1 mi
7:00 am79 °FLight rain. Broken clouds.9 mph89%29.71 "Hg1 mi
6:30 am81 °FPassing clouds.3 mph89%29.71 "Hg2 mi
6:00 am81 °FPassing clouds.3 mph89%29.71 "Hg2 mi
5:30 am81 °FPassing clouds.5 mph84%29.71 "Hg2 mi
5:00 am81 °FPassing clouds.5 mph84%29.68 "Hg2 mi
4:30 am82 °FPassing clouds.No wind79%29.68 "Hg2 mi
4:00 am81 °FPassing clouds.3 mph84%29.68 "Hg2 mi
3:30 am81 °FPassing clouds.5 mph84%29.68 "Hg2 mi
3:00 am81 °FPassing clouds.5 mph84%29.68 "Hg2 mi
2:30 am81 °FPartly cloudy.No wind89%29.71 "Hg2 mi
2:00 am81 °FLight rain. Partly cloudy.3 mph89%29.71 "Hg2 mi
1:30 am79 °FLight rain. Passing clouds.5 mph84%29.71 "Hg2 mi
1:00 am82 °FPassing clouds.5 mph79%29.71 "Hg2 mi
12:30 am82 °FPassing clouds.5 mph79%29.74 "Hg2 mi
12:00 am82 °FPassing clouds.7 mph79%29.74 "Hg2 mi
11:30 pm
Sat, Aug 24
82 °FPassing clouds.8 mph79%29.74 "Hg2 mi
11:00 pm82 °FPassing clouds.7 mph79%29.74 "Hg2 mi
10:30 pm82 °FPassing clouds.7 mph79%29.74 "Hg2 mi
10:00 pm82 °FPassing clouds.6 mph79%29.74 "Hg2 mi
9:30 pm82 °FPassing clouds.6 mph79%29.74 "Hg2 mi
9:00 pm82 °FPassing clouds.7 mph84%29.74 "Hg2 mi
8:30 pm82 °FPassing clouds.8 mph84%29.74 "Hg2 mi
8:00 pm82 °FPassing clouds.7 mph84%29.71 "Hg2 mi
7:30 pm84 °FPartly cloudy.9 mph74%29.71 "Hg2 mi
7:00 pm84 °FBroken clouds.3 mph74%29.71 "Hg2 mi
6:30 pm84 °FBroken clouds.7 mph74%29.71 "Hg2 mi
6:00 pm84 °FBroken clouds.10 mph74%29.68 "Hg2 mi
5:30 pm84 °FScattered showers. Broken clouds.12 mph74%29.68 "Hg2 mi
5:00 pm86 °FScattered showers. Broken clouds.14 mph70%29.68 "Hg2 mi
4:30 pm86 °FBroken clouds.13 mph70%29.68 "Hg2 mi
4:00 pm86 °FScattered clouds.9 mph75%29.68 "Hg2 mi
3:30 pm84 °FBroken clouds.9 mph79%29.71 "Hg2 mi
3:00 pm84 °FLight rain. Broken clouds.8 mph74%29.71 "Hg1 mi
2:30 pm88 °FScattered clouds.13 mph62%29.71 "Hg2 mi
2:00 pm86 °FScattered clouds.13 mph70%29.74 "Hg2 mi
1:30 pm86 °FScattered clouds.12 mph70%29.74 "Hg2 mi
1:00 pm86 °FScattered clouds.15 mph70%29.77 "Hg2 mi
12:30 pm86 °FScattered clouds.14 mph70%29.77 "Hg2 mi
12:00 pm86 °FScattered clouds.14 mph70%29.77 "Hg2 mi
11:30 am86 °FScattered clouds.16 mph70%29.77 "Hg2 mi
11:00 am86 °FScattered clouds.15 mph75%29.77 "Hg2 mi
10:30 am84 °FScattered showers. Scattered clouds.16 mph79%29.77 "Hg2 mi
10:00 am84 °FBroken clouds.14 mph79%29.77 "Hg2 mi
Weather by CustomWeather, © 2019

See weather overview